FW4526 Weather Reports


time (UTC)temp
C
wind
direction
speed
KPH
gust
KPH
rain 1hr
cm
rain 24hr
cm
rain mn
cm
humidity
%
barometer
mb
20260502123013 7 325 1.6 11.3 0.00 0.00 0.00 73 1012.5
20260502121602 7 297 11.3 22.5 0.00 0.00 0.00 72 1012.5
20260502114520 7 9 6.4 12.9 0.00 0.00 0.00 73 1012.7
20260502113018 7 311 3.2 11.3 0.00 0.00 0.00 73 1012.6
20260502111514 6 306 4.8 12.9 0.00 0.00 0.00 74 1012.6
20260502110012 6 309 4.8 11.3 0.00 0.00 0.00 74 1012.6
20260502104510 6 336 3.2 16.1 0.00 0.00 0.00 74 1012.4
20260502103010 7 325 4.8 14.5 0.00 0.00 0.00 74 1012.2
20260502101509 7 324 4.8 14.5 0.00 0.00 0.00 73 1012.2
20260502071513 10 44 3.2 11.3 0.00 0.00 0.00 72 1010.9
20260502070019 10 355 4.8 16.1 0.00 0.00 0.00 72 1011.0
20260502064515 11 344 1.6 8.0 0.00 0.00 0.00 72 1010.9
20260502063009 11 330 4.8 9.7 0.00 0.00 0.00 70 1011.0
20260502061503 11 320 8.0 12.9 0.00 0.00 0.00 69 1011.1
20260502060112 11 312 3.2 6.4 0.00 0.00 0.00 70 1011.1
20260502054603 11 315 3.2 9.7 0.00 0.00 0.00 70 1011.1
20260502053107 11 342 3.2 11.3 0.00 0.00 0.00 71 1011.2
20260502051603 11 323 3.2 8.0 0.00 0.00 0.00 71 1011.2
20260502050059 11 311 0.0 3.2 0.00 0.00 0.00 72 1011.2
20260502044556 11 320 0.0 8.0 0.00 0.00 0.00 72 1011.2
20260502043056 11 338 3.2 8.0 0.00 0.00 0.00 72 1011.0
20260502041553 11 342 0.0 9.7 0.00 0.00 0.00 72 1011.1
20260502040025 11 326 0.0 4.8 0.00 0.00 0.00 71 1010.7
20260502034527 12 326 1.6 9.7 0.00 0.00 0.00 71 1010.7
20260502033017 12 338 3.2 14.5 0.00 0.00 0.00 69 1010.8
20260502031514 12 332 4.8 12.9 0.00 0.00 0.00 69 1010.3
20260502030013 13 331 4.8 14.5 0.00 0.00 0.00 69 1010.4
20260502024512 13 346 8.0 17.7 0.00 0.00 0.00 68 1010.2
20260502023041 12 323 1.6 8.0 0.00 0.00 0.00 73 1009.9
20260502021539 12 9 3.2 6.4 0.00 0.00 0.00 76 1009.6
20260502020034 12 106 0.0 4.8 0.00 0.00 0.00 74 1009.6
20260502014533 13 106 0.0 4.8 0.00 0.00 0.00 69 1009.6
20260502013027 14 253 1.6 8.0 0.00 0.00 0.00 64 1009.4
20260502011543 14 204 1.6 11.3 0.00 0.00 0.00 64 1009.1
20260502010023 15 317 3.2 11.3 0.00 0.00 0.00 60 1008.5
20260502004522 15 94 0.0 3.2 0.00 0.00 0.00 61 1008.0
20260502003023 15 94 0.0 3.2 0.00 0.00 0.00 55 1007.9
20260502001517 15 94 0.0 1.6 0.00 0.00 0.00 55 1007.9
20260502000013 15 94 0.0 3.2 0.00 0.00 0.00 52 1007.9
20260501234514 16 93 0.0 8.0 0.00 0.00 0.00 51 1007.7
20260501233013 16 145 1.6 6.4 0.00 0.00 0.00 47 1007.5
20260501231520 17 150 1.6 8.0 0.00 0.00 0.00 47 1007.5
20260501230009 17 150 1.6 11.3 0.00 0.00 0.00 45 1007.6
20260501224509 17 138 4.8 12.9 0.00 0.00 0.00 45 1007.6
20260501223008 18 142 3.2 20.9 0.00 0.00 0.00 44 1008.0
20260501221507 17 109 3.2 11.3 0.00 0.00 0.00 47 1008.0
20260501220005 17 221 3.2 20.9 0.00 0.00 0.00 44 1008.0
20260501214508 18 123 4.8 14.5 0.00 0.00 0.00 44 1008.0
20260501213003 18 240 8.0 19.3 0.00 0.00 0.00 42 1008.0
20260501211501 18 161 3.2 20.9 0.00 0.00 0.00 42 1008.1
20260501210059 18 198 6.4 25.7 0.00 0.00 0.00 44 1008.1
20260501204558 18 211 6.4 27.4 0.00 0.00 0.00 42 1008.2
20260501203057 18 106 6.4 17.7 0.00 0.00 0.00 46 1008.2
20260501201555 18 218 8.0 24.1 0.00 0.00 0.00 43 1008.6
20260501200051 18 161 8.0 19.3 0.00 0.00 0.00 46 1009.0
20260501194552 17 120 6.4 24.1 0.00 0.00 0.00 47 1009.1
20260501193049 17 182 8.0 20.9 0.00 0.00 0.00 45 1009.4
20260501191550 17 83 4.8 20.9 0.00 0.00 0.00 46 1009.7
20260501190057 17 112 6.4 20.9 0.00 0.00 0.00 46 1010.1
20260501184543 17 132 9.7 24.1 0.00 0.00 0.00 46 1010.2
20260501183042 17 227 8.0 17.7 0.00 0.00 0.00 45 1010.3
20260501181540 17 180 3.2 20.9 0.00 0.00 0.00 48 1010.6
20260501180036 16 92 3.2 16.1 0.00 0.00 0.00 55 1010.8
20260501174534 16 192 4.8 17.7 0.00 0.00 0.00 52 1011.1
20260501173031 16 189 8.0 19.3 0.00 0.00 0.00 51 1011.2
20260501171532 16 240 6.4 16.1 0.00 0.00 0.00 52 1011.3
20260501170030 16 115 8.0 22.5 0.00 0.00 0.00 51 1011.5
20260501164603 15 103 4.8 19.3 0.00 0.00 0.00 53 1011.8
20260501163059 15 134 12.9 20.9 0.00 0.00 0.00 51 1011.8
20260501161603 15 134 6.4 20.9 0.00 0.00 0.00 52 1012.0
20260501160110 15 183 8.0 17.7 0.00 0.00 0.00 54 1012.3
20260501154626 15 143 9.7 22.5 0.00 0.00 0.00 52 1012.5
20260501153052 14 128 4.8 11.3 0.00 0.00 0.00 55 1012.8
20260501151548 14 197 3.2 17.7 0.00 0.00 0.00 55 1012.9
20260501150058 13 118 6.4 11.3 0.00 0.00 0.00 51 1013.0
20260501144544 13 160 1.6 8.0 0.00 0.00 0.00 53 1013.2
20260501143106 13 213 3.2 8.0 0.00 0.00 0.00 56 1013.2